RH
26 25 24 22 18 15 11 10 9 9 10 10 10 10 11 12 14 15 15 15 15 15 15 14 14 15 16 16 14 14 13 12 9 6 4 4 4 4 4 5 6 7 7 7 8 10 13 15 17 18 19 20 18 22 32 49 63 62 55 50 48 47 44 43 43 41 43 46 45 43 48 49 48 53 57 61 60 56 59 59 55 57 57 57 58 54 48 44
28 27 27 26 24 22 18 14 11 10 9 9 9 9 10 10 11 12 13 14 15 16 16 15 14 14 15 16 16 14 13 13 11 8 6 5 4 4 4 5 6 6 6 7 8 10 13 15 17 19 20 20 20 24 32 46 56 57 56 50 46 44 43 46 46 42 40 44 42 42 48 49 50 50 44 43 45 42 47 53 53 53 54 55 55 53 50 45
29 28 28 27 26 25 24 21 18 14 11 9 9 9 9 9 10 10 11 12 13 15 16 16 15 13 14 15 16 15 14 12 10 9 8 5 4 4 4 5 5 6 6 6 7 9 12 15 16 18 20 18 21 24 29 45 52 55 57 49 43 42 44 49 51 47 43 44 41 42 49 52 57 55 44 39 40 39 40 43 48 52 51 51 50 49 50 46
29 29 28 28 27 26 26 25 23 21 17 13 10 9 9 9 10 9 10 10 11 13 14 16 15 14 14 13 14 15 14 13 11 10 9 7 5 4 4 5 5 6 5 5 6 9 12 14 15 18 18 17 21 22 24 35 46 54 52 43 43 44 45 50 52 52 50 47 43 45 49 50 55 58 48 36 35 38 38 38 43 49 50 49 48 45 47 46
29 28 28 28 27 27 26 25 25 24 22 19 15 11 9 9 9 9 9 9 10 10 12 15 15 14 13 13 14 14 15 14 13 15 15 13 11 6 4 4 5 5 5 5 6 9 12 14 16 17 16 16 18 20 21 28 42 50 45 43 48 46 45 50 51 52 54 52 50 50 49 47 50 55 47 33 32 36 35 37 37 41 48 51 50 45 43 44
29 28 28 28 27 26 26 25 25 24 23 22 21 18 13 10 8 8 9 9 9 9 10 12 14 14 13 13 13 14 15 13 15 20 19 17 14 9 5 4 5 5 4 4 5 8 12 14 16 17 16 16 16 18 21 30 43 46 42 45 47 46 47 48 49 51 54 54 54 53 51 50 49 49 43 31 33 36 32 36 34 32 40 47 51 47 42 40
30 29 28 28 27 27 26 26 25 24 23 23 22 22 19 15 11 9 8 8 8 9 9 10 12 12 13 13 13 14 12 11 15 16 16 18 15 10 7 6 5 4 4 4 5 8 11 14 17 17 17 16 16 17 20 33 45 44 43 45 46 47 46 46 49 49 50 50 50 53 54 52 48 45 41 31 31 35 33 35 35 31 34 38 43 46 44 41
31 31 30 29 28 28 27 26 26 25 24 23 23 23 21 19 16 12 9 8 8 8 8 9 10 10 11 11 12 12 9 11 17 14 12 17 15 10 7 5 5 4 4 4 5 8 12 15 17 17 17 16 17 17 18 30 41 42 43 46 48 47 45 48 50 47 45 43 45 48 49 47 46 46 43 33 31 35 35 35 36 34 35 36 37 42 44 44
33 32 31 31 30 29 28 28 27 26 25 25 24 24 22 20 19 17 14 10 8 8 8 9 8 9 9 10 10 9 8 12 17 14 12 14 13 11 7 5 4 4 4 4 7 11 14 16 16 16 17 16 17 18 17 23 32 38 43 46 49 48 47 48 48 46 42 39 40 42 42 43 46 49 46 37 32 34 35 35 36 35 36 37 36 37 42 46
33 33 33 32 31 30 29 28 28 27 26 26 25 24 22 21 20 20 18 15 11 8 8 8 8 8 8 9 8 6 10 13 14 13 13 12 11 10 8 6 5 5 5 7 11 16 18 18 16 14 15 16 16 17 17 20 25 34 43 48 47 46 46 44 42 42 40 37 36 35 35 38 44 47 45 38 32 33 34 34 35 36 37 36 34 34 40 47
34 34 33 33 32 31 30 29 28 28 27 27 26 24 22 21 21 21 20 19 16 11 9 7 7 7 7 8 6 6 11 13 13 13 13 14 12 11 12 9 6 7 8 10 15 19 22 21 18 14 13 15 16 16 17 19 23 30 41 48 47 44 42 39 37 37 36 34 31 31 33 40 47 43 39 38 32 32 34 32 33 36 38 36 32 31 36 45
33 33 33 33 32 31 30 29 28 28 28 28 26 24 22 22 22 22 21 21 20 17 13 9 8 7 7 7 6 9 12 12 14 13 14 18 16 15 19 16 10 9 10 12 14 16 19 20 18 13 12 15 16 17 19 20 23 29 40 47 45 44 40 35 34 34 34 31 26 30 39 46 45 37 36 40 34 31 34 33 34 37 39 38 34 29 30 40
31 32 32 32 32 32 31 30 29 28 29 29 27 25 23 23 23 22 21 21 21 20 17 14 10 8 7 6 6 10 12 12 14 13 15 21 20 18 21 20 16 13 11 13 15 15 15 15 14 12 11 14 16 19 25 28 27 31 42 47 45 43 37 32 32 32 31 29 25 30 41 41 36 35 40 41 35 32 33 33 34 36 37 38 36 29 27 33
31 31 31 30 30 31 31 30 29 29 29 29 27 25 24 24 23 22 21 21 21 21 19 18 15 11 9 6 7 9 10 11 12 13 16 21 22 21 20 18 16 15 12 12 14 16 16 16 14 12 12 13 15 19 30 41 40 39 45 47 47 45 35 28 30 31 30 30 27 28 33 33 33 37 40 39 35 31 31 31 31 32 33 34 35 31 26 28
31 31 31 31 30 30 30 29 29 29 30 28 27 26 25 26 25 23 22 21 21 20 20 20 18 15 12 8 7 7 9 9 10 14 18 20 22 22 20 17 15 14 14 13 12 13 14 16 14 13 12 11 14 18 29 45 48 46 48 47 46 45 34 27 28 30 30 31 30 29 28 28 31 35 36 37 35 30 30 30 30 29 29 31 33 31 27 27
27 28 30 31 31 31 30 29 28 29 30 28 27 26 26 26 25 24 23 21 21 21 20 20 19 18 14 11 8 7 8 9 10 14 17 18 18 20 20 21 20 17 15 14 13 12 12 13 13 12 11 11 13 18 29 45 49 47 50 47 43 41 35 30 28 28 30 29 27 27 26 24 25 30 34 35 33 31 29 29 30 29 28 29 31 31 28 26
18 21 24 26 29 30 30 29 28 29 29 28 27 26 26 26 26 25 24 23 21 21 21 20 20 19 17 13 11 9 7 8 9 11 14 14 15 19 22 23 23 19 15 14 12 13 13 12 12 11 11 11 12 18 29 43 48 47 50 48 42 40 38 33 29 27 29 28 25 24 23 22 21 24 31 34 32 31 29 27 28 29 28 28 30 31 29 27
8 10 13 17 20 23 26 27 27 28 29 28 27 27 27 27 26 26 25 23 22 22 22 21 20 19 17 15 13 11 9 8 9 9 11 11 13 18 20 21 22 20 16 14 13 13 14 13 12 11 10 10 11 16 25 36 41 43 48 48 43 41 39 35 31 29 29 28 26 24 22 23 23 23 28 34 32 30 30 27 27 29 29 28 30 31 29 30
4 4 5 7 10 13 16 20 24 25 27 27 26 26 27 27 27 27 25 24 23 23 22 21 20 19 17 16 14 12 10 9 9 9 10 10 12 15 18 20 22 21 17 15 16 16 15 15 14 12 10 9 10 14 20 28 34 40 46 45 42 40 39 36 33 31 31 29 27 25 21 23 27 27 28 34 34 32 30 28 27 29 30 29 30 30 30 31
3 4 4 4 4 5 7 10 15 19 22 25 25 25 26 27 27 27 25 24 24 24 23 22 20 20 19 18 16 12 10 10 9 10 10 10 11 13 16 19 22 25 21 16 17 18 19 20 14 9 8 8 9 11 14 19 26 39 45 42 39 38 37 35 33 32 29 26 26 24 21 23 29 31 30 33 35 34 31 28 28 29 30 30 30 31 30 32
3 3 3 3 4 3 4 4 7 10 14 18 22 24 25 27 28 27 24 24 25 23 21 21 21 19 19 20 18 15 12 10 10 10 11 10 10 12 14 17 21 25 23 20 21 23 23 22 14 7 6 8 8 8 10 12 20 37 46 45 43 39 35 34 32 31 28 25 24 23 21 22 28 32 34 34 35 34 32 29 29 29 29 29 30 31 31 32
2 2 2 3 3 3 4 4 4 5 6 10 15 20 24 26 28 28 25 22 23 24 22 20 20 18 17 20 20 19 15 12 11 11 11 10 9 10 12 15 18 20 21 23 26 30 26 18 13 11 8 7 8 9 10 11 19 38 51 53 51 42 35 34 31 29 28 26 25 23 21 19 21 26 32 34 34 34 32 31 30 30 29 28 29 30 32 33
2 1 2 2 2 3 3 4 4 4 4 5 9 16 22 27 29 31 30 23 19 22 23 20 20 18 16 19 20 21 17 13 12 11 11 11 9 9 11 13 15 16 20 21 22 28 28 19 13 14 12 9 8 8 10 14 23 39 53 56 51 42 38 35 31 28 25 23 22 21 20 19 18 20 25 30 33 33 33 32 31 31 29 28 29 30 32 33
1 1 2 1 1 2 2 3 4 4 4 4 6 12 21 28 32 34 33 28 19 17 20 21 20 18 17 19 20 20 18 15 14 12 11 11 10 10 9 11 13 14 17 17 16 20 22 20 16 15 15 13 10 9 11 17 24 39 53 56 51 44 41 36 31 29 25 22 21 19 19 19 17 17 19 23 29 32 32 32 32 32 30 29 30 32 33 33
1 2 1 1 2 1 1 3 3 4 4 4 5 9 18 27 32 35 34 31 24 16 17 19 19 18 19 20 20 18 18 17 15 13 12 11 10 10 9 10 13 13 12 15 19 19 16 18 19 17 16 16 14 12 10 12 21 36 45 47 49 48 42 36 32 30 26 25 24 22 24 23 18 18 20 22 26 28 30 32 33 32 30 29 30 32 35 35
2 2 1 1 1 1 2 2 3 4 4 4 5 7 15 23 31 36 32 31 27 18 17 19 18 18 18 19 19 18 19 17 15 15 14 12 12 12 11 11 12 12 10 12 20 20 14 14 19 20 17 16 16 14 10 10 20 30 26 31 48 52 44 38 34 29 25 25 24 23 26 27 21 19 21 23 26 27 28 30 31 33 31 29 29 31 34 35
2 2 2 2 1 1 1 1 2 3 3 5 5 7 12 21 34 38 31 33 31 20 19 21 19 18 17 18 19 18 19 17 15 16 14 14 15 15 16 14 12 12 12 14 21 21 14 14 18 20 20 18 16 14 11 11 19 23 18 27 44 46 42 38 31 28 25 24 23 21 21 23 21 19 20 21 23 26 30 31 30 32 32 29 29 31 33 34
2 2 2 2 2 2 1 1 2 2 4 4 4 7 11 23 40 39 31 36 34 21 20 22 20 19 17 18 18 19 19 16 16 16 14 16 19 19 19 18 14 12 10 14 20 16 12 13 13 14 19 20 16 12 10 9 15 20 21 29 36 38 39 34 27 25 23 21 22 21 20 21 22 19 19 19 19 22 26 29 31 32 32 30 29 30 32 34
3 2 2 2 2 2 2 2 1 2 4 4 5 6 11 27 41 37 35 37 29 21 21 21 20 19 18 18 17 19 20 16 14 14 15 19 22 21 20 18 17 15 11 12 14 12 12 12 10 11 16 16 10 9 10 9 11 15 19 26 31 33 33 29 26 24 21 20 21 21 20 22 22 18 17 18 18 18 20 23 28 31 32 30 28 29 31 33
4 3 3 3 2 3 3 2 2 3 3 4 7 6 14 32 38 38 46 40 26 24 23 20 22 19 18 18 16 18 20 17 13 12 14 18 22 24 23 21 21 20 16 15 15 14 14 13 14 16 16 12 8 9 9 10 13 13 13 18 22 24 25 24 24 21 20 21 20 19 18 20 22 18 16 17 17 18 18 19 25 30 32 31 28 28 30 32
5 4 4 3 3 3 2 3 2 3 3 5 7 8 20 36 38 42 49 34 22 27 24 21 23 20 18 18 16 17 20 18 13 11 14 17 23 28 27 27 27 24 21 20 19 18 17 18 19 19 17 15 15 13 11 12 16 18 16 16 17 19 18 20 20 20 23 23 18 17 16 17 21 19 16 16 17 18 18 18 20 25 30 30 29 28 27 30
6 6 5 5 4 4 3 3 3 3 4 5 6 10 23 37 39 41 39 24 20 29 26 23 23 20 20 20 17 16 18 19 14 11 13 17 23 27 27 28 27 25 26 25 24 23 22 21 21 20 18 18 20 20 19 18 19 22 23 21 21 22 19 21 24 22 22 21 17 15 15 16 19 17 15 15 16 17 17 18 18 21 27 29 28 27 26 27
7 6 6 6 4 5 4 3 3 3 4 5 7 13 27 40 40 35 28 21 25 30 28 25 23 22 23 21 20 17 16 18 16 12 13 16 23 26 26 27 26 24 25 26 26 26 25 24 23 23 21 19 21 22 22 23 23 23 26 24 25 27 27 29 31 25 21 18 15 14 15 16 15 14 14 14 15 16 17 17 17 19 24 27 27 26 25 26
8 7 7 6 5 5 4 4 4 3 5 8 8 18 37 45 39 33 28 25 29 31 29 27 25 24 24 24 23 20 17 17 16 14 13 15 21 26 29 30 28 25 23 24 26 26 26 26 22 21 22 20 20 20 18 21 24 23 24 25 26 27 28 28 27 24 20 16 14 16 18 16 14 13 14 13 14 16 16 17 17 17 20 24 24 22 22 24
9 8 7 6 6 6 5 6 5 4 7 9 10 25 43 43 34 33 33 30 31 33 32 30 28 26 26 26 25 22 20 18 16 15 14 15 18 23 29 31 29 27 24 23 25 25 26 24 19 18 21 20 18 18 17 19 23 23 22 25 26 24 23 21 20 19 17 16 18 19 18 14 12 13 13 13 13 14 15 16 16 16 18 20 19 17 17 19
9 8 7 7 6 6 6 7 6 6 9 13 21 31 37 36 35 37 39 37 37 38 36 33 32 30 29 29 27 24 22 19 17 16 14 15 18 22 28 30 29 28 25 24 23 23 24 22 18 18 20 18 16 16 17 18 22 24 22 22 23 23 23 21 19 17 17 21 21 18 15 13 12 12 11 11 12 12 14 15 16 16 16 16 16 15 15 15
9 7 8 8 6 6 8 10 11 12 10 18 34 38 31 33 37 38 42 44 41 41 39 36 35 35 32 31 29 27 24 21 18 16 14 14 18 24 27 30 30 28 26 26 23 22 22 19 18 19 18 16 15 17 17 16 19 23 22 20 20 22 23 22 22 20 20 25 22 16 15 14 14 15 12 11 11 11 13 15 15 15 15 14 14 14 15 15
8 9 13 12 10 9 9 10 18 23 20 27 45 50 43 40 37 35 41 43 42 41 41 40 39 38 37 36 34 29 26 25 22 18 16 15 19 25 27 28 30 29 27 27 26 24 23 20 18 18 16 15 16 18 19 17 17 20 20 19 19 20 20 20 22 22 23 28 24 17 15 14 13 14 14 13 12 11 12 14 15 15 14 14 14 14 15 15
9 12 16 17 15 13 11 12 22 36 43 47 58 64 62 51 38 34 37 39 42 43 42 43 42 42 40 40 40 36 32 31 28 24 21 20 23 27 28 28 28 29 29 27 26 26 24 23 21 18 17 17 17 19 19 18 18 18 20 21 19 19 19 18 20 20 21 27 27 20 17 15 12 11 11 12 13 13 13 13 15 15 14 14 14 14 14 15
11 14 18 20 17 14 15 15 20 36 52 62 69 77 79 69 53 44 45 50 54 54 53 52 50 50 48 44 44 43 39 37 33 32 32 30 30 30 29 29 28 28 29 29 28 27 25 24 23 21 19 18 18 18 17 16 16 18 20 22 20 18 18 17 18 16 17 23 27 24 19 15 11 10 9 8 9 12 13 13 13 14 13 13 14 15 14 14
13 16 21 23 20 19 20 24 33 44 58 73 84 88 91 89 79 65 60 67 72 70 71 68 61 59 56 51 50 48 46 43 38 37 39 38 36 34 32 32 30 28 27 28 28 27 27 25 23 22 20 18 17 16 14 13 13 14 17 19 19 19 16 17 20 17 14 17 22 22 18 13 10 10 9 8 7 8 10 12 13 13 13 13 14 15 15 14
19 22 27 27 26 27 25 35 61 78 84 91 96 96 96 98 97 84 72 73 77 79 80 73 65 63 60 57 57 55 52 49 45 42 43 44 43 41 39 38 36 31 27 26 28 28 28 28 25 23 21 19 18 16 14 14 12 12 14 15 17 19 17 17 20 18 14 15 16 17 17 14 11 11 10 9 8 8 8 10 12 12 12 14 14 14 14 14
25 25 33 36 35 36 32 42 69 88 95 100 100 100 100 99 100 94 82 76 76 78 78 72 65 64 64 64 63 62 58 54 53 50 47 50 51 46 44 43 39 35 29 28 33 33 31 32 28 24 22 21 18 17 15 14 14 13 14 14 16 19 17 16 18 16 14 14 15 17 19 15 12 12 11 10 9 9 8 9 10 11 11 12 13 13 14 14
25 23 35 44 47 51 55 66 83 88 87 89 90 95 100 100 100 98 91 86 81 76 73 71 69 67 68 69 67 65 63 59 60 59 54 55 57 53 50 48 44 40 35 35 40 38 34 35 32 26 24 23 21 20 17 15 16 16 15 15 15 17 17 17 17 15 15 14 13 16 18 14 11 11 11 10 10 9 9 9 10 11 11 12 12 12 14 15
27 27 36 47 58 68 74 84 95 93 85 78 73 78 87 92 97 98 96 94 88 80 74 71 70 70 70 70 69 69 67 62 63 64 60 59 60 57 55 54 50 45 42 43 44 41 38 37 36 31 30 29 27 27 23 18 16 17 16 15 15 16 17 17 15 15 17 16 12 13 15 12 11 11 10 10 10 9 9 9 9 9 10 11 12 13 13 14
40 41 38 44 63 76 79 85 87 86 88 81 67 65 71 78 87 93 96 98 93 83 78 74 71 69 70 70 70 72 71 67 66 66 63 62 60 58 57 55 52 49 48 47 45 44 42 39 37 35 36 38 37 31 26 24 23 21 18 16 15 15 15 16 16 15 16 17 14 13 13 12 11 11 10 10 10 9 9 9 8 10 10 10 11 12 12 13
55 57 52 53 67 74 77 82 81 80 86 83 73 70 68 69 79 85 86 94 97 88 80 78 74 71 73 74 73 74 74 70 67 66 64 62 59 58 56 55 53 50 49 48 47 47 45 41 39 40 43 50 50 37 29 30 31 28 22 18 16 15 15 15 16 16 15 17 18 15 14 13 12 12 11 11 10 9 9 8 8 9 10 10 9 9 10 12
63 67 71 72 75 76 76 77 76 78 83 82 81 82 75 68 76 86 84 82 87 91 87 81 78 77 80 79 75 73 72 68 64 64 64 62 59 57 55 53 52 51 49 49 48 47 46 43 42 44 45 47 48 40 33 32 33 31 27 22 18 17 16 15 16 16 15 16 17 16 14 14 14 13 12 11 10 9 9 9 8 8 8 8 8 8 8 10
69 72 79 79 75 78 84 84 81 79 81 82 82 85 87 80 76 87 94 83 76 84 87 83 82 81 82 83 77 69 66 67 69 69 66 63 60 55 52 51 50 49 49 48 47 47 47 45 46 47 44 39 38 37 34 31 31 31 28 25 22 19 17 16 15 15 16 16 15 15 15 15 14 14 13 12 11 10 10 9 9 8 7 8 9 9 8 8
74 79 86 80 70 74 83 84 82 78 77 83 85 87 95 94 78 77 88 89 84 85 84 82 82 80 80 85 81 70 68 72 73 71 68 65 60 56 54 52 50 49 48 46 46 46 45 46 46 46 45 40 34 33 32 32 33 31 28 26 24 21 20 18 16 15 16 16 16 15 15 15 15 14 14 13 12 11 11 11 10 9 8 7 9 10 10 10
78 84 93 85 70 70 78 79 79 77 76 84 90 90 90 91 82 73 73 79 87 91 87 83 83 79 75 75 75 74 74 70 66 67 70 69 62 58 55 52 49 48 45 43 44 43 44 45 43 45 50 44 34 33 32 31 31 31 27 24 24 23 23 20 18 17 16 16 16 15 16 15 15 15 14 13 13 12 12 12 12 11 10 8 8 10 12 13
80 83 93 89 74 69 74 75 76 79 81 85 88 86 82 82 81 78 75 75 84 96 98 92 91 85 70 65 73 77 71 62 58 61 64 62 59 55 49 46 45 43 41 41 41 40 41 42 41 46 54 47 35 34 34 32 34 31 26 25 25 23 23 21 19 18 17 15 15 14 14 15 14 14 14 13 13 13 12 13 13 12 12 10 8 9 10 12
Wind_Speed
16 16 16 17 17 17 17 17 17 17 18 18 18 19 20 21 22 23 22 21 20 19 18 17 17 16 15 14 12 12 11 11 13 13 10 8 13 19 21 22 24 26 26 26 28 26 24 21 19 17 14 13 12 9 9 9 11 11 9 8 5 2 5 5 5 5 9 13 11 9 9 8 3 4 6 7 5 5 4 5 6 8 12 11 12 14 13 16
16 16 16 16 17 17 17 17 17 17 17 17 17 17 18 19 20 21 22 22 21 20 19 18 18 17 16 15 14 13 12 12 12 11 10 9 14 18 19 22 25 26 26 28 28 26 24 21 20 18 15 14 11 11 11 10 12 12 10 9 3 6 8 8 6 3 5 10 13 10 10 8 4 1 2 1 0 3 3 4 6 8 13 12 13 16 15 16
17 17 16 16 17 17 17 17 17 17 17 17 17 17 17 18 19 20 20 21 21 21 20 19 19 18 17 17 16 15 14 13 11 10 10 10 12 16 18 21 24 24 24 26 26 26 24 21 20 19 17 16 13 13 12 11 12 11 12 10 6 9 9 6 3 2 3 5 11 12 10 10 10 7 6 2 1 4 7 5 4 7 10 12 12 14 16 17
18 18 17 17 17 17 17 17 17 17 17 17 17 17 17 17 18 18 19 20 20 20 20 20 20 18 18 18 17 17 16 14 12 9 10 9 11 15 18 20 22 23 22 24 28 28 27 25 23 20 19 17 15 15 14 13 12 12 12 6 8 10 8 5 3 2 1 4 6 10 12 12 12 12 10 5 1 5 8 7 3 3 6 9 10 11 14 16
18 18 18 18 18 18 18 18 17 17 17 17 17 17 17 17 17 18 18 18 19 19 19 20 20 19 18 18 18 17 16 14 9 6 7 9 10 14 17 19 21 22 23 26 30 31 30 28 26 23 21 19 17 17 15 13 13 14 13 7 9 9 8 8 6 3 2 8 9 10 13 14 13 14 13 4 4 4 5 7 5 2 1 4 6 7 12 15
20 19 19 19 19 19 19 19 18 18 17 17 17 17 17 17 17 17 17 17 18 18 18 19 20 20 18 19 19 17 17 12 5 5 7 9 10 12 16 19 20 23 24 27 32 34 33 31 29 27 23 20 19 18 15 12 14 15 13 10 9 7 9 11 6 1 6 11 13 13 13 16 17 16 12 3 2 1 3 5 6 4 5 3 4 6 9 12
21 20 20 19 19 19 20 20 20 19 18 17 17 17 17 17 17 17 17 17 16 17 17 18 20 20 19 20 19 19 18 10 8 12 10 8 8 9 14 19 20 23 26 28 33 35 35 33 31 27 23 21 20 18 16 14 16 17 14 11 8 6 12 10 1 6 10 14 15 16 14 16 20 20 13 5 4 3 2 2 3 3 5 5 3 5 7 9
21 21 21 21 20 20 20 21 21 20 19 18 18 18 18 18 17 17 16 16 16 16 16 17 19 19 19 19 19 19 13 4 9 15 10 8 8 7 12 18 21 24 26 28 32 34 35 34 31 27 25 22 20 19 18 17 18 20 16 11 10 10 11 5 9 11 11 14 17 17 16 16 17 22 18 7 5 8 4 2 1 1 1 3 4 5 8 10
22 22 22 22 21 21 21 21 21 21 20 19 19 20 20 19 18 16 16 15 15 16 16 17 18 18 18 18 20 17 7 7 13 15 12 11 10 8 11 16 20 24 25 26 29 33 34 33 30 28 26 23 21 21 20 20 20 20 17 15 14 13 11 12 14 13 12 15 17 17 16 15 16 22 24 15 9 11 7 6 4 3 2 1 3 6 8 11
24 24 23 23 23 22 22 22 21 21 21 20 20 21 22 21 19 17 15 15 15 16 16 17 17 17 17 17 19 11 5 11 15 14 13 12 12 11 11 14 18 22 23 25 29 32 32 30 28 26 26 24 23 22 22 23 22 20 19 20 19 16 16 15 14 12 12 15 16 17 16 15 16 23 28 21 13 13 11 8 6 5 5 2 2 5 9 12
26 26 25 25 24 24 24 23 23 22 21 21 21 22 23 22 21 19 17 16 16 16 17 17 17 17 16 17 16 8 8 13 14 13 13 13 13 12 10 13 16 19 22 24 28 29 28 27 26 26 26 25 25 24 24 25 22 20 21 22 21 19 19 17 15 11 12 14 15 16 16 14 18 24 28 25 16 14 13 9 8 8 8 4 0 4 9 13
26 27 27 27 26 26 25 25 24 23 22 22 23 23 23 22 21 21 20 18 17 17 17 17 18 16 16 15 7 4 11 15 16 15 15 15 16 16 13 13 14 17 20 23 25 26 26 27 27 28 28 26 25 24 23 25 23 21 21 23 22 21 22 19 15 13 12 13 14 14 14 19 22 22 24 27 21 15 15 13 11 10 10 8 4 2 6 13
26 27 27 27 28 28 28 27 26 25 23 23 24 24 23 22 22 22 21 20 19 19 18 18 18 17 17 11 2 7 13 15 19 19 18 18 18 19 18 17 17 17 19 20 21 23 25 26 27 29 29 27 27 23 21 21 23 23 21 23 24 24 23 19 15 15 12 12 14 12 18 25 23 22 25 28 25 20 18 15 13 12 12 11 7 3 5 11
26 27 27 27 28 28 29 29 28 27 26 25 25 24 23 23 23 22 22 21 21 21 20 20 18 18 17 8 5 14 16 17 21 20 20 21 20 20 20 20 20 20 21 21 22 24 25 25 26 28 29 30 29 25 21 17 18 22 22 23 25 25 23 18 15 17 14 14 15 14 21 28 23 22 26 27 28 23 19 17 14 13 13 12 10 6 5 9
27 27 27 27 27 28 28 29 29 28 27 27 26 25 24 24 24 23 23 22 22 22 22 21 20 20 19 9 8 16 19 19 18 20 22 22 22 20 18 18 19 21 22 23 25 26 27 27 28 29 30 31 30 28 26 20 17 19 20 22 23 24 24 19 17 17 14 14 16 17 22 28 25 23 24 27 30 26 20 19 16 14 13 12 12 8 5 8
28 28 28 28 27 27 28 28 29 28 28 28 27 26 25 25 25 24 23 23 23 23 22 23 21 21 20 11 10 15 20 20 17 21 25 22 21 20 17 17 19 21 23 24 26 28 30 29 30 31 30 31 32 31 29 26 23 21 21 23 21 23 26 22 19 17 14 13 16 20 24 29 28 25 24 27 30 28 23 21 20 17 15 13 13 10 7 9
27 28 28 28 28 28 28 29 28 27 28 28 28 27 26 26 25 24 24 24 24 24 24 24 23 23 20 14 13 13 17 23 20 21 25 23 22 22 20 19 20 22 23 25 28 29 30 31 32 32 33 32 32 32 30 31 33 28 24 24 23 22 25 25 22 17 14 14 16 20 25 29 29 27 26 26 30 30 25 22 22 20 17 15 15 13 11 10
26 26 26 27 27 27 29 30 29 27 27 27 28 27 26 27 26 25 25 25 25 24 24 24 24 24 19 14 15 15 16 23 24 22 23 23 23 25 23 19 20 22 25 27 29 31 31 31 32 33 35 35 35 36 36 35 35 31 26 25 25 24 25 27 26 20 16 17 18 21 24 25 26 28 27 26 29 31 27 23 23 22 20 17 17 16 14 12
26 26 25 25 26 26 28 30 29 29 27 27 27 27 26 27 27 26 25 25 25 24 23 23 23 22 17 10 11 15 18 21 25 25 23 22 23 25 24 22 22 23 26 30 30 32 33 32 33 36 40 42 41 42 42 37 31 27 25 23 22 24 27 29 28 25 22 23 23 22 24 23 23 28 29 28 29 31 30 26 25 24 22 21 20 19 17 14
29 28 27 26 25 26 27 29 29 30 29 27 27 27 26 26 27 27 26 26 25 25 24 24 24 23 19 14 11 13 17 21 25 27 27 26 24 25 26 26 25 26 29 31 31 32 32 33 39 45 45 44 43 40 39 37 33 28 23 21 21 23 29 31 29 26 22 22 23 21 21 21 22 27 29 31 32 32 33 30 27 25 23 22 21 20 21 15
31 30 29 27 26 26 27 29 28 29 30 28 27 27 27 27 27 27 28 26 25 27 26 24 26 26 21 19 19 17 18 22 25 28 30 30 28 29 30 31 31 32 32 29 29 29 32 38 45 46 44 41 39 38 36 36 36 35 30 27 25 27 32 32 29 27 22 21 24 22 20 20 21 26 30 32 34 35 35 32 28 24 21 21 22 22 22 15
33 32 30 29 28 27 28 29 28 29 29 28 28 27 27 28 27 28 29 27 23 24 27 24 24 26 20 18 22 24 25 27 26 28 31 33 33 34 35 36 36 36 32 29 30 31 35 44 46 40 39 39 37 36 35 35 35 36 35 33 32 33 34 32 31 28 24 24 25 23 23 22 20 24 31 34 36 36 35 35 31 26 22 19 19 21 23 19
36 35 33 31 29 28 29 30 29 29 28 27 27 27 27 27 27 27 29 30 25 22 24 26 26 26 21 17 21 27 31 32 28 28 32 34 36 37 37 39 39 37 34 35 36 37 37 41 42 38 35 37 38 36 34 34 34 36 36 35 37 37 32 30 30 24 16 14 17 17 20 21 18 20 27 32 36 38 37 37 34 30 25 18 14 16 22 24
39 38 36 34 31 29 29 30 30 29 28 26 25 26 26 26 26 26 26 32 32 26 22 23 28 28 24 19 21 26 30 32 31 30 32 35 36 37 39 40 40 40 38 38 39 41 40 34 33 36 37 35 37 38 36 35 36 38 39 39 40 37 32 31 29 26 20 16 17 18 20 23 23 22 24 27 33 39 40 40 37 33 29 22 20 22 24 25
40 39 38 37 35 31 29 30 29 28 27 25 24 25 25 25 23 24 25 28 33 31 23 22 25 25 24 24 24 26 30 34 32 30 33 35 35 37 39 39 41 42 41 39 38 40 42 34 25 26 34 37 37 38 39 39 39 40 43 45 41 36 32 30 27 26 26 25 26 22 16 18 24 23 20 21 29 35 38 40 40 37 32 27 26 26 27 28
39 39 38 38 37 34 30 30 28 26 25 23 24 24 23 23 21 21 23 25 29 28 22 18 18 19 22 23 25 26 30 33 30 31 34 35 34 35 36 40 42 41 39 38 37 39 42 40 31 23 25 33 38 41 42 40 39 42 46 45 40 36 35 33 30 25 22 25 27 21 12 13 21 24 20 19 22 27 32 38 39 38 35 30 27 25 26 29
38 38 37 37 38 36 33 31 28 25 23 21 22 22 21 20 17 16 17 16 18 18 15 12 11 15 17 17 24 28 26 25 26 33 37 36 35 36 36 40 42 40 38 36 37 40 40 39 38 34 28 28 35 42 44 41 40 44 46 41 38 36 34 32 27 23 23 26 28 27 22 20 27 33 29 24 22 24 29 35 37 40 38 33 30 26 26 28
36 37 37 35 36 37 35 33 30 26 21 19 19 19 18 16 13 10 8 5 4 4 8 9 11 14 15 15 20 27 26 19 20 31 37 37 37 37 38 41 40 38 38 38 41 42 39 37 38 40 38 34 36 40 40 42 43 43 41 36 36 35 32 29 22 21 23 22 28 35 27 17 23 35 34 29 28 27 29 31 34 40 40 36 32 28 26 26
36 37 37 35 34 35 34 33 32 26 21 17 16 17 15 12 10 6 2 2 3 4 7 9 11 11 12 14 15 23 29 20 13 25 38 40 38 39 39 39 38 36 36 38 41 39 35 34 32 34 40 40 38 36 36 40 44 43 39 34 31 30 29 26 22 22 21 17 26 37 29 14 17 30 31 27 30 31 29 27 29 36 40 38 34 30 27 26
35 36 37 36 35 34 32 31 30 27 21 16 15 15 12 10 10 7 5 6 5 6 10 11 11 10 10 14 13 18 29 24 13 20 37 43 40 40 39 35 35 35 36 38 38 37 35 31 28 29 33 34 33 34 34 35 37 38 39 37 33 31 30 27 26 24 18 15 26 36 32 18 14 25 32 32 33 32 29 27 28 34 40 40 36 33 29 27
34 34 36 38 38 36 32 30 28 25 20 15 13 12 11 11 13 9 5 10 9 6 9 10 12 13 10 12 15 16 25 28 18 17 35 44 41 43 42 35 34 31 32 37 37 37 37 32 29 28 27 25 26 31 33 30 30 29 32 34 30 27 26 26 26 22 13 11 18 26 28 22 18 23 31 35 36 31 29 29 28 30 35 39 39 35 31 29
33 33 34 37 38 37 35 31 27 23 18 15 13 12 13 13 16 18 11 7 7 8 10 10 12 14 11 11 13 15 21 29 23 17 31 46 45 47 47 42 40 32 28 37 37 34 38 38 35 30 28 25 23 26 30 31 31 27 27 28 21 11 10 12 11 10 11 10 10 14 16 21 29 33 32 36 37 33 31 29 26 27 29 34 38 36 33 30
33 33 32 34 37 37 35 31 26 22 16 14 15 15 17 12 12 25 23 13 7 5 9 12 12 13 10 6 7 11 16 24 26 17 23 42 48 47 47 44 43 37 30 34 35 30 30 34 38 35 32 31 28 28 29 31 33 32 31 30 22 8 3 6 5 3 9 10 10 15 14 18 31 35 34 36 37 35 35 31 26 25 26 28 32 33 34 33
33 33 33 33 35 36 35 30 25 21 14 13 17 17 21 16 10 14 19 21 21 14 11 12 11 11 8 4 5 11 12 16 24 21 19 34 46 46 46 44 42 41 34 28 29 32 25 22 33 40 38 35 33 32 29 25 27 31 34 31 27 19 11 6 4 3 3 3 8 14 13 14 21 25 29 31 31 32 33 32 28 26 26 26 27 28 32 34
31 31 33 33 33 34 34 30 24 19 13 14 18 20 26 26 15 7 8 17 25 25 22 19 15 13 9 6 7 10 11 14 23 27 21 28 42 45 45 45 43 42 39 27 22 30 30 28 30 31 34 36 34 32 29 23 22 25 29 31 34 38 26 8 4 7 5 3 4 13 15 20 23 24 25 24 26 29 28 28 28 27 26 25 26 28 29 30
30 28 29 31 32 31 31 29 23 17 14 16 20 26 33 29 17 10 8 11 17 20 21 21 21 19 16 14 13 10 11 13 19 25 23 23 33 39 41 42 43 43 42 35 27 25 27 32 32 24 25 33 33 32 30 27 25 21 27 38 41 40 32 17 11 14 11 6 6 10 16 24 25 26 28 24 24 29 29 28 28 28 27 25 25 27 26 25
30 27 26 29 29 28 28 27 22 16 16 20 24 29 33 29 23 18 13 11 13 13 13 13 14 14 13 14 14 12 12 12 14 19 22 21 24 32 37 37 39 41 41 40 37 30 23 26 31 26 25 27 28 31 31 31 29 23 27 39 36 26 26 23 13 9 8 5 5 10 16 20 19 18 21 23 25 28 31 31 28 26 26 26 24 24 24 22
30 27 27 27 27 26 26 26 21 17 18 23 28 29 27 27 27 24 21 19 18 16 16 14 10 10 9 8 9 12 11 10 11 13 18 20 18 24 32 33 35 41 43 41 36 31 26 22 23 26 26 23 23 27 29 30 33 31 30 31 25 16 19 23 15 5 4 4 4 9 15 21 27 23 15 16 19 23 28 32 32 29 27 26 24 22 21 20
29 26 26 26 26 25 25 25 21 17 19 24 28 27 24 26 26 23 24 26 25 23 22 18 14 12 11 10 9 9 10 8 9 11 13 14 13 16 25 29 32 36 42 46 40 30 25 20 20 25 25 21 22 29 32 33 34 35 34 32 27 22 20 25 23 11 5 4 3 6 8 18 32 34 25 19 18 16 18 24 29 31 30 29 26 22 21 21
28 26 25 26 26 25 24 24 20 15 18 21 23 23 23 24 24 22 21 22 22 20 17 16 16 15 14 14 13 13 12 10 9 8 7 6 8 13 17 22 27 29 32 41 43 38 31 24 23 24 23 22 27 31 32 34 36 38 39 36 33 28 20 19 25 25 17 7 3 2 6 13 21 23 22 22 21 19 18 19 23 25 27 30 29 26 22 21
27 25 24 25 25 23 23 23 17 11 15 17 19 22 22 21 22 23 21 18 17 15 13 14 15 16 17 17 16 17 16 14 12 8 6 6 6 9 11 14 19 21 22 27 34 39 36 29 25 23 22 26 29 27 26 28 33 38 42 42 39 34 25 12 12 25 30 20 9 5 7 18 22 17 14 15 17 20 21 21 21 21 22 25 29 29 26 24
26 24 22 23 23 21 20 18 12 8 11 12 12 16 18 17 18 21 23 21 17 14 12 12 11 12 13 13 14 16 15 13 11 9 9 10 8 9 8 8 9 12 15 18 23 32 33 28 28 29 27 26 24 23 25 26 28 33 39 43 42 39 35 22 12 19 28 26 21 11 10 26 35 27 19 16 15 16 18 22 24 23 22 22 24 26 27 27
25 21 19 21 20 18 17 14 9 8 9 6 7 9 12 13 14 16 19 18 15 12 11 10 10 10 9 8 10 12 11 9 8 9 11 11 9 10 9 7 6 7 11 13 15 22 24 22 27 30 29 28 26 24 25 26 29 35 40 43 45 44 42 37 31 27 23 23 23 12 8 23 32 27 22 20 17 15 15 18 22 24 25 24 24 23 23 24
25 20 17 18 17 13 11 10 9 7 8 9 10 9 8 10 12 14 15 14 11 9 9 10 10 9 7 6 7 8 8 8 8 10 13 12 10 10 11 8 6 5 6 8 9 11 12 14 17 17 15 18 23 23 25 29 32 36 40 42 44 47 44 41 41 35 24 24 27 17 11 22 30 27 24 22 20 19 17 16 19 21 23 25 26 24 21 21
24 20 16 16 14 8 6 8 11 12 10 11 14 14 11 10 11 12 14 13 12 9 8 7 8 8 8 7 7 7 7 9 9 8 12 13 12 12 11 9 7 6 4 5 4 5 7 9 10 9 8 8 10 10 15 24 30 33 36 39 41 44 44 43 41 33 24 25 31 27 20 24 30 30 26 23 22 21 19 17 19 19 20 23 26 25 23 22
23 21 19 17 11 4 6 9 10 11 12 12 11 12 13 13 10 8 12 11 11 12 8 6 7 9 9 9 8 6 6 7 9 9 10 13 14 14 12 10 10 8 5 4 4 5 7 8 6 7 10 9 9 9 10 15 22 24 27 33 39 41 43 45 43 37 32 27 32 39 35 28 27 28 26 23 21 21 19 17 18 18 17 19 22 23 25 25
20 19 20 19 11 5 6 9 9 9 10 11 10 9 10 13 12 9 8 9 9 10 8 6 7 8 8 9 8 6 5 6 8 10 11 13 16 17 16 14 12 11 8 7 7 7 8 7 6 8 11 11 13 15 15 15 18 18 21 29 36 37 41 47 47 46 41 30 30 44 46 38 34 31 28 26 23 22 20 16 16 18 19 20 21 22 24 26
19 17 17 17 14 12 12 11 10 10 10 9 9 7 8 10 10 10 9 8 8 7 7 8 7 5 3 6 9 9 7 8 10 11 12 14 18 20 20 19 17 16 14 10 9 10 10 8 7 10 14 14 13 14 17 21 22 21 22 27 33 37 42 49 50 49 47 39 38 46 46 42 41 36 31 29 24 21 20 15 13 16 19 21 23 23 23 26
19 17 15 14 14 14 13 12 12 12 10 10 8 7 8 9 8 9 9 8 8 8 9 9 8 5 2 2 7 11 11 10 11 11 13 15 17 19 21 21 20 19 18 14 12 12 11 9 8 12 16 17 14 11 14 20 24 27 28 28 30 35 41 47 48 47 48 47 48 49 44 41 43 40 36 35 33 31 31 28 25 23 23 24 24 24 22 23
18 16 15 14 14 13 11 11 13 12 10 10 9 8 9 8 7 8 8 9 9 6 8 11 11 10 8 5 5 8 10 11 11 13 15 16 18 18 19 20 21 20 19 17 15 13 13 11 11 15 20 18 14 12 13 18 23 28 33 33 34 35 37 41 44 45 46 47 47 48 47 45 45 43 42 43 42 42 42 40 36 32 31 29 24 20 19 20
17 15 14 15 15 14 13 12 13 13 12 10 10 10 10 8 8 9 8 9 11 8 7 11 12 12 13 11 9 9 11 13 16 16 16 16 18 18 18 19 21 22 23 21 18 18 17 16 16 17 19 18 13 11 15 21 24 29 37 39 38 37 37 37 38 41 45 47 46 47 50 50 46 45 46 46 45 45 44 41 36 31 31 32 27 19 17 19
17 14 13 14 15 15 14 13 13 13 12 12 12 12 12 10 11 11 8 7 9 7 7 10 11 12 14 14 12 12 14 18 20 20 19 19 20 20 20 21 21 23 25 23 21 20 18 18 17 15 16 16 11 10 15 16 16 25 34 34 34 39 41 39 39 39 40 45 48 52 52 48 43 42 44 45 45 44 43 41 38 32 29 31 30 24 20 20
Wind_Direction
318 317 316 316 314 313 311 307 305 301 298 295 291 289 286 283 282 280 279 279 279 279 280 280 281 283 285 285 285 282 278 275 271 269 262 236 225 224 220 216 217 215 211 211 213 211 207 206 211 217 224 231 236 232 224 220 225 235 242 263 284 168 132 122 150 192 221 228 237 244 222 213 197 167 191 204 225 265 267 230 217 189 175 171 187 203 214 198
319 318 316 314 314 314 313 311 309 305 301 298 295 292 289 286 284 282 280 279 278 278 278 278 278 279 281 282 282 281 279 276 274 273 266 238 227 228 221 217 219 216 212 212 212 212 211 211 214 218 224 230 231 232 230 230 234 233 245 262 242 143 131 120 126 167 227 235 248 255 229 224 221 262 320 152 162 338 324 263 238 197 182 182 186 195 208 203
318 318 317 315 314 312 311 312 311 309 306 302 299 295 292 289 285 283 281 279 278 276 276 276 275 276 278 279 280 281 281 279 277 275 267 244 227 226 220 216 219 219 216 213 211 210 209 210 215 219 221 224 225 230 234 233 236 233 242 247 179 152 146 132 123 179 240 252 257 252 231 224 217 240 303 321 127 51 27 346 262 216 203 198 191 191 201 204
317 316 315 314 314 312 311 310 310 309 308 306 303 299 296 292 288 285 282 280 279 276 275 274 274 274 274 276 278 279 282 284 284 277 264 247 227 222 217 213 215 218 217 212 208 205 203 203 210 216 218 221 221 228 235 234 237 234 232 217 155 167 165 151 130 125 293 336 297 254 235 230 222 235 265 288 46 68 39 16 345 248 224 211 205 192 193 202
317 315 314 313 312 311 311 309 308 307 307 307 305 303 300 296 292 288 285 283 280 278 275 273 272 272 272 273 274 276 280 285 291 273 245 240 230 220 214 210 214 217 215 211 206 202 200 200 204 209 213 218 221 227 234 235 239 234 229 201 166 180 167 151 139 117 350 345 332 285 258 251 237 235 248 274 52 51 31 24 20 23 157 205 229 212 191 197
317 316 313 312 310 309 308 308 307 306 305 305 304 304 301 298 294 290 288 287 284 282 277 273 271 270 270 269 270 272 271 273 284 264 238 233 231 222 212 207 213 217 213 209 206 201 199 200 203 206 209 212 219 228 231 234 239 238 233 206 183 185 164 149 138 56 327 320 316 312 291 262 248 244 248 251 92 21 8 30 34 60 88 116 225 233 200 192
316 315 313 311 309 308 307 306 305 305 305 304 303 301 298 296 293 292 291 290 288 285 280 274 271 270 269 267 268 267 266 264 254 257 249 232 230 222 214 208 210 213 210 206 203 201 200 201 204 206 208 209 216 227 229 231 239 242 233 208 208 204 167 153 158 314 314 309 308 310 295 267 256 251 251 252 206 229 325 42 57 71 75 84 163 213 203 191
312 312 312 310 309 307 305 304 303 303 303 303 303 299 296 293 291 293 295 294 292 287 283 276 272 272 269 267 267 265 264 234 232 249 241 226 233 224 216 211 207 205 204 204 203 202 202 203 204 206 208 209 214 224 226 226 237 241 228 213 229 219 189 213 291 297 304 308 307 300 291 284 272 257 254 264 212 215 243 231 154 148 110 66 119 175 191 189
307 307 307 307 307 306 304 302 301 300 301 301 299 297 294 293 293 296 298 297 293 287 282 277 275 274 271 269 267 265 257 218 231 244 238 226 232 229 214 207 203 197 195 199 202 204 205 205 205 206 210 210 214 222 225 225 234 241 239 239 239 231 233 258 276 285 296 305 305 297 294 293 278 257 250 253 232 214 224 230 217 204 226 26 116 160 183 187
303 303 302 302 302 302 302 300 299 298 299 299 296 293 292 294 298 300 298 295 290 285 280 278 277 276 274 271 268 265 232 228 231 235 235 225 223 226 210 199 196 190 189 196 201 205 206 207 207 210 213 212 214 219 224 227 232 239 248 250 242 237 243 249 256 268 288 298 300 295 295 293 274 256 245 242 234 215 216 226 222 216 222 252 105 151 178 186
300 300 299 299 298 298 298 298 298 297 298 297 293 291 291 294 298 298 296 293 289 285 283 281 279 279 276 274 274 266 228 225 225 224 222 214 209 212 209 198 191 188 190 196 203 206 206 209 212 216 217 216 216 219 225 228 232 237 244 247 240 241 241 237 239 249 278 293 298 297 298 288 262 252 245 237 234 221 218 223 223 222 218 228 91 147 180 186
298 297 296 296 296 296 295 294 295 295 296 295 292 291 291 293 293 292 293 292 290 286 285 282 281 281 277 278 284 257 236 221 219 219 207 204 202 194 194 194 190 191 195 199 204 205 207 211 215 218 217 218 219 221 228 230 233 236 242 244 238 244 239 227 234 247 267 284 297 295 277 261 245 244 244 235 235 232 226 226 225 229 222 221 222 168 186 189
300 298 296 295 295 294 294 293 293 293 294 292 291 291 291 291 289 287 288 288 287 285 284 282 281 280 278 282 195 209 234 217 213 214 201 201 202 193 189 188 188 189 194 201 204 205 209 213 217 218 217 221 221 220 228 233 236 235 240 245 243 250 240 222 232 245 256 278 292 280 253 254 250 245 245 235 235 234 229 228 223 227 228 227 224 201 198 197
305 302 299 297 295 294 292 292 292 292 292 290 288 289 290 288 286 284 283 282 283 283 283 282 282 279 277 279 190 209 225 222 215 209 202 201 201 199 195 194 194 192 193 196 201 205 208 213 217 220 220 222 222 221 225 228 232 232 238 242 246 256 242 218 227 239 251 273 286 282 261 263 263 255 250 239 236 234 231 233 228 227 230 235 233 217 212 210
310 307 304 301 299 296 293 290 289 290 290 288 287 287 287 285 284 282 280 279 278 278 279 280 281 279 278 276 229 220 223 230 223 204 203 203 202 205 204 206 206 201 197 196 201 205 207 211 215 219 220 220 223 225 225 223 222 225 237 240 241 252 244 224 221 233 256 275 281 280 267 267 266 261 257 245 238 234 233 235 235 234 232 238 240 231 223 213
310 308 306 305 303 300 296 292 289 288 287 284 283 284 284 282 281 281 279 277 274 273 274 275 276 276 277 274 247 231 224 229 223 204 207 209 206 207 210 214 211 206 202 199 202 206 208 211 214 219 220 220 225 226 226 230 228 222 234 240 235 242 248 240 219 226 257 276 278 275 270 273 272 265 259 248 238 234 235 235 236 239 236 239 241 236 231 216
311 308 307 305 304 303 299 295 292 290 288 283 281 281 280 279 278 278 277 275 273 271 270 270 270 270 272 269 256 247 228 223 219 207 208 211 208 207 210 210 206 204 202 200 201 203 206 210 213 217 219 220 225 225 227 233 230 222 226 235 234 235 244 243 228 229 253 266 278 284 282 278 272 267 261 250 240 236 237 237 238 239 237 239 239 237 236 231
315 312 310 308 306 304 300 296 293 292 291 286 282 279 278 277 276 275 274 273 272 271 270 268 266 265 265 258 253 250 229 220 219 210 204 204 202 205 207 204 202 203 200 198 199 201 202 207 212 217 219 219 221 221 222 227 228 224 223 231 237 237 239 240 238 241 254 267 279 288 289 282 269 262 259 253 245 241 241 242 242 241 239 238 238 238 237 241
316 315 314 313 311 309 303 298 295 293 292 291 286 282 279 276 275 273 271 271 270 269 269 266 262 259 256 249 251 244 225 214 215 212 206 201 198 200 200 197 200 204 201 197 198 201 202 204 209 214 217 217 218 220 222 226 228 226 226 231 238 243 242 239 240 247 261 273 276 279 288 289 270 255 252 251 248 245 243 241 242 242 239 237 240 240 238 247
314 313 314 314 314 313 308 303 300 295 293 292 290 288 284 280 277 272 269 268 268 266 262 264 264 259 249 242 245 237 220 211 212 211 208 206 201 199 197 196 198 202 204 201 200 202 203 207 212 214 216 216 218 222 226 230 231 229 229 231 236 243 244 239 239 249 264 275 274 274 287 292 278 261 253 250 248 246 242 239 240 241 239 238 241 242 238 244
312 311 311 312 311 312 310 307 305 301 297 295 293 291 289 286 282 278 273 268 267 268 264 261 262 260 250 238 235 229 218 215 213 209 211 211 206 203 202 200 199 200 203 201 201 205 207 215 218 217 217 218 220 223 227 232 233 233 234 238 243 244 244 242 240 246 258 270 270 270 278 285 280 268 258 252 249 246 241 240 242 244 243 242 244 244 238 237
311 309 309 308 308 309 308 307 307 304 302 301 298 294 292 290 287 285 283 274 261 262 268 265 262 262 253 236 231 228 224 223 217 211 213 213 209 207 205 203 203 203 202 199 202 207 213 222 222 218 218 219 220 223 226 230 233 234 236 243 249 245 246 248 246 251 261 269 270 269 273 279 280 272 261 256 255 251 247 247 250 252 252 251 250 243 236 230
310 309 307 306 305 305 305 305 305 303 305 306 303 299 296 293 293 294 292 286 267 250 261 266 265 265 258 240 228 226 228 227 222 216 216 215 212 209 207 206 207 206 204 202 204 208 215 225 225 219 218 219 221 223 225 228 231 233 234 240 244 243 249 255 252 257 262 262 267 268 271 271 273 274 264 257 256 253 250 250 251 252 252 254 259 249 235 230
309 308 307 305 304 303 302 302 302 302 305 308 306 302 299 295 298 298 296 293 280 262 259 261 259 262 262 251 233 228 232 231 225 221 220 219 214 210 210 210 210 208 209 209 209 212 216 224 227 222 219 219 221 222 224 226 228 231 232 234 239 241 249 257 259 262 262 254 258 271 280 273 267 271 267 259 252 249 248 247 244 244 244 243 246 247 237 231
310 309 308 306 303 301 300 299 300 301 303 306 306 303 300 297 300 300 299 299 288 277 275 267 259 256 252 245 235 229 231 231 226 219 221 223 217 213 211 211 212 212 213 212 213 219 221 222 227 224 221 221 222 223 224 224 227 231 232 232 236 242 249 257 262 269 273 267 261 266 281 276 269 271 272 263 252 248 248 247 245 243 242 237 237 241 236 230
311 310 309 308 304 301 299 297 296 297 299 303 303 300 298 297 298 300 302 302 293 286 283 272 255 246 243 236 230 228 228 233 226 212 217 223 219 216 213 211 213 216 218 215 216 224 226 224 225 225 223 222 223 225 225 224 227 232 234 232 235 243 249 256 261 266 273 272 267 264 264 272 276 273 273 272 265 260 252 248 247 242 239 238 236 237 235 231
312 310 310 310 306 303 300 296 294 294 295 297 296 294 295 295 297 302 305 305 298 289 278 260 229 226 234 225 220 218 221 234 223 208 215 219 215 215 215 215 214 215 217 215 218 227 228 224 225 227 228 225 225 227 226 224 226 233 237 235 235 241 247 254 261 263 266 272 273 269 263 267 270 266 268 273 275 272 260 251 247 240 238 239 238 236 235 232
314 311 310 311 308 305 302 298 296 296 294 291 289 289 291 289 289 296 307 312 302 273 255 236 203 210 220 214 215 211 211 226 216 207 214 216 214 214 215 218 218 218 216 213 218 228 230 227 226 227 227 228 229 229 227 225 226 232 237 238 238 240 246 253 260 264 269 274 271 267 262 255 260 264 267 269 268 267 262 256 250 242 238 239 239 236 233 232
316 312 311 310 307 305 304 300 297 298 295 286 281 283 284 280 270 258 253 258 232 217 227 210 196 208 212 208 211 207 207 213 206 201 206 209 213 215 216 218 220 221 222 221 225 231 235 235 234 233 231 233 235 234 231 230 229 232 236 238 240 240 244 251 256 265 274 268 258 262 259 244 259 264 262 260 259 260 261 261 255 245 240 241 241 239 234 231
317 315 313 310 305 302 302 300 298 297 294 284 274 272 270 259 239 208 193 224 216 215 225 213 206 212 208 206 206 203 205 203 194 195 200 205 210 213 217 219 217 220 224 228 231 234 238 242 240 238 237 240 243 240 235 233 233 235 237 239 242 245 247 252 257 265 276 262 252 257 256 250 265 264 257 253 253 257 262 265 262 250 242 241 242 242 238 232
319 316 314 310 305 303 302 301 299 295 291 279 264 257 248 229 209 194 215 232 225 221 218 210 210 210 207 208 204 202 204 201 197 194 196 200 203 206 210 211 209 214 223 226 230 233 235 240 240 239 240 241 243 242 239 236 234 234 238 239 242 248 250 253 257 255 255 257 254 258 257 250 248 253 255 256 255 258 262 263 264 258 248 244 243 244 242 236
321 317 315 310 307 307 305 304 301 294 286 267 253 240 222 208 207 213 214 213 233 236 211 199 199 198 203 215 209 206 205 200 199 197 196 198 201 205 208 207 203 201 212 221 224 229 231 234 237 240 242 237 232 234 235 235 232 227 230 230 227 235 241 238 243 237 239 254 259 261 259 246 247 252 256 257 257 258 260 261 263 264 258 251 247 247 247 243
323 318 314 309 306 307 305 304 301 295 282 252 240 226 208 201 223 227 218 208 234 240 200 198 191 186 194 211 214 213 210 203 202 199 196 199 203 207 210 211 208 204 210 217 217 221 228 234 235 235 239 237 230 225 223 226 227 223 222 218 207 187 174 217 225 246 256 257 247 246 250 250 256 262 262 259 258 258 259 260 261 263 261 255 250 251 253 251
323 319 314 309 306 305 303 303 300 291 276 238 227 215 204 211 229 230 223 225 239 249 233 218 201 189 192 199 220 220 212 205 206 205 199 199 203 206 208 210 211 212 216 217 214 214 218 230 231 228 230 231 229 227 224 224 226 224 222 218 214 211 199 196 205 200 240 257 217 213 223 246 254 259 264 263 260 258 258 257 256 259 258 254 254 256 258 257
324 320 315 310 306 304 302 302 298 287 268 231 222 212 211 219 222 226 234 228 238 250 249 245 239 229 226 232 244 232 212 202 205 207 206 203 204 206 208 209 210 213 217 217 215 214 216 228 233 227 227 230 229 228 228 227 229 227 221 220 224 223 216 213 242 239 259 321 225 203 218 246 255 261 268 270 264 257 254 254 252 252 253 252 254 258 261 260
326 322 314 307 303 303 303 301 296 283 256 230 226 223 222 224 220 224 240 229 241 258 257 254 254 252 251 243 243 237 216 208 205 204 206 208 207 208 212 213 211 213 217 220 219 212 213 231 238 229 225 230 230 229 226 221 222 219 214 219 225 227 224 229 259 269 272 287 259 227 235 251 261 268 267 263 261 257 252 250 247 247 250 250 251 256 259 260
327 326 317 308 306 305 305 302 294 275 246 230 231 232 231 230 224 224 239 242 246 267 275 267 254 248 249 241 233 223 210 206 201 199 200 199 203 208 211 214 213 212 215 221 225 221 218 235 241 233 229 232 231 230 229 226 222 214 213 221 224 228 232 231 244 274 260 255 262 240 244 254 255 260 262 255 253 254 252 249 246 245 246 245 246 252 256 256
329 331 322 315 315 314 308 303 292 267 241 233 236 238 238 238 233 231 241 252 255 263 272 273 261 244 238 238 228 210 200 198 190 179 180 184 193 206 207 209 212 213 214 216 222 224 226 239 246 238 237 237 229 224 222 225 227 224 225 228 221 213 216 215 218 241 227 236 281 254 251 254 247 242 246 249 247 250 251 248 246 245 244 241 239 243 249 251
327 330 324 318 322 322 311 302 291 262 238 236 241 244 244 243 241 239 244 254 260 263 267 267 262 254 244 247 252 230 216 211 188 161 161 175 186 199 203 205 209 213 216 218 220 223 225 236 246 243 242 239 225 215 212 215 222 225 232 236 231 226 219 211 211 213 209 216 260 272 263 255 252 249 245 243 245 247 246 243 244 246 246 244 241 242 245 247
326 328 324 320 324 327 317 306 294 262 241 244 248 250 253 251 247 243 244 252 258 258 259 256 250 252 250 249 260 262 252 240 215 177 161 181 182 189 202 206 207 209 215 220 222 224 226 230 240 243 239 227 215 212 214 216 216 218 222 226 227 227 225 219 218 217 218 215 194 247 266 258 260 260 252 246 243 238 237 239 243 246 249 247 243 244 246 248
327 327 324 322 326 329 322 313 302 266 242 247 252 252 255 258 255 248 242 248 257 255 253 253 250 256 261 259 260 265 263 257 247 228 225 236 194 180 193 202 206 207 209 215 220 223 225 227 232 237 232 223 219 223 231 231 225 221 221 222 223 222 216 209 221 220 219 223 219 204 257 264 261 263 264 257 248 242 239 238 239 242 247 247 242 240 244 250
329 331 328 324 328 331 322 314 307 271 243 250 266 264 257 258 259 254 250 256 267 266 260 258 254 253 257 254 253 259 262 258 253 243 242 244 217 187 177 175 187 193 195 201 209 216 221 223 227 234 233 228 230 236 240 242 239 233 229 228 226 224 218 211 218 221 215 222 233 232 260 265 264 264 264 263 263 257 246 238 236 237 239 241 238 238 244 251
330 335 334 330 333 335 321 308 296 264 250 272 304 284 259 254 258 254 251 259 267 261 246 234 230 236 240 231 232 248 257 246 232 225 230 239 227 205 190 179 176 177 187 191 195 209 217 220 225 234 239 238 237 237 236 237 236 232 230 231 227 225 224 224 230 233 223 219 226 229 251 258 262 266 261 261 263 258 253 246 240 240 238 235 237 242 251 255
330 333 338 340 342 337 322 326 338 310 279 282 292 288 262 243 248 247 244 251 254 237 222 219 221 228 236 232 228 241 250 236 222 214 217 234 244 223 211 210 201 184 183 187 195 206 209 211 219 228 240 239 237 238 236 232 229 228 229 230 229 229 228 228 232 235 236 229 223 221 239 250 256 260 259 261 257 251 259 254 239 241 241 236 239 246 252 256
331 332 340 349 347 338 340 356 1 354 332 301 287 293 292 267 250 233 226 240 248 233 218 222 227 229 235 243 242 248 252 237 228 219 213 226 246 244 232 223 214 208 189 185 214 229 221 218 218 219 222 222 226 232 228 226 228 230 231 232 231 230 227 226 228 228 232 232 225 224 236 249 254 257 258 258 256 260 268 257 245 249 248 240 240 243 247 254
335 335 337 348 0 14 6 352 341 342 342 325 305 299 299 300 296 246 211 219 236 233 229 234 235 236 243 247 247 258 264 240 235 245 239 235 244 251 249 238 221 215 214 229 259 277 263 250 244 246 246 248 247 224 202 218 230 229 230 232 232 232 229 227 227 226 227 229 229 233 239 247 250 253 256 254 256 266 266 255 254 256 251 249 247 245 249 255
337 339 338 343 356 4 342 333 324 332 342 335 323 310 295 300 313 300 246 229 229 220 213 219 229 234 245 251 253 263 272 259 256 266 272 268 261 258 260 258 248 239 245 267 281 289 288 276 263 259 253 255 258 241 223 237 250 241 230 228 229 232 232 228 226 228 229 227 233 239 240 242 244 248 254 256 259 264 260 259 264 255 249 256 258 256 256 254
336 340 341 338 338 335 330 325 324 339 352 341 326 321 301 286 297 312 299 276 271 251 223 214 210 210 227 249 253 260 276 288 286 279 282 284 276 267 263 265 267 261 259 271 281 287 299 295 278 271 261 254 263 260 244 247 257 253 238 229 227 229 232 232 231 231 230 228 236 242 241 241 244 246 250 253 254 253 251 258 263 252 255 265 267 266 261 253
335 337 339 335 331 331 331 329 328 338 348 339 330 335 321 293 283 302 307 291 286 280 265 254 237 229 241 247 254 267 284 295 293 286 284 286 286 282 275 272 273 268 263 264 269 281 297 294 281 288 283 270 267 270 255 251 255 254 246 238 232 229 233 236 237 237 236 236 240 245 246 246 246 245 246 250 253 253 255 260 262 257 263 272 272 266 256 250
337 336 333 333 334 333 330 327 328 334 338 335 336 332 319 310 289 277 284 293 290 276 269 272 268 262 265 267 268 275 281 281 280 283 286 287 289 293 290 282 277 274 270 267 266 273 286 288 285 296 298 286 270 264 256 248 251 253 248 243 239 235 236 239 240 240 239 240 242 245 246 247 247 248 250 253 257 259 261 265 267 264 264 268 270 265 256 252
336 336 329 328 331 330 328 327 327 328 329 330 336 328 313 316 307 277 264 280 289 282 266 267 271 268 264 265 272 269 263 266 271 274 280 286 289 291 290 286 285 284 279 276 275 276 282 287 289 300 307 296 278 270 259 251 254 256 251 246 244 243 242 243 244 242 241 241 243 244 244 245 246 249 252 254 256 259 262 265 269 268 266 264 261 258 257 255
333 333 326 323 325 324 323 324 323 325 331 333 331 322 313 314 314 305 291 272 270 278 279 274 278 278 268 265 271 270 262 263 267 269 273 279 284 285 284 284 286 286 284 283 282 279 281 285 286 297 308 297 281 276 273 271 268 258 251 250 251 249 247 246 245 245 245 244 243 242 245 248 249 250 251 253 254 258 261 264 266 268 268 264 255 249 252 251